User: anonymous   Login
Location: *
(17.3280°S, 114.7300°W)
Time: 18:32:03
(UTC+00:00)
Language:

Cosmos 1703 - Orbit

View from above orbital plane
View from above orbital plane
View from above satellite
View from above satellite

Ground track
Ground track

The orbit data is extracted from the following two-line orbital elements,

1 16262U 85108A   20298.47320596  .00001357  00000-0  78524-4 0  9992
2 16262  82.4754 125.4805 0012227  29.5054 330.6864 15.11380518903918
Epoch (UTC): 24 October 2020 11:21:24
Eccentricity: 0.0012227
inclination: 82.4754°
perigee height: 523 km
apogee height: 540 km
right ascension of ascending node: 125.4805°
argument of perigee: 29.5054°
revolutions per day: 15.11380518
mean anomaly at epoch: 330.6864°
orbit number at epoch: 90391

The dashed part of the orbit path shows where the satellite is in the earth's shadow,  

DLR